Home   Weather   Toulouse   Past weeks

Flag for France Past Weather in Toulouse, Midi-Pyrénées, France — Yesterday and Last 2 Weeks

Now
30 °F

Ice fog.


Feels Like: 30 °F
Forecast: 43 / 59 °F
Wind: 2 mph from Southeast

Location: Toulouse / Blagnac

Current Time: Dec 3, 2016 at 5:48:52 am

Latest Report: Dec 3, 2016 at 5:00 am


Visibility: 2 mi

Pressure: 29.98 "Hg

Humidity: 93%

Dew Point: 28 °F

Location of ToulouseLocation

Past Weather in Toulouse — Graph

°F

Toulouse Temperature Yesterday

Maximum temperature yesterday: 50 °F (at 4:00 pm)
Minimum temperature yesterday: 30 °F (at 5:30 am)
Average temperature yesterday: 37 °F

High & Low Weather Summary for the Past Weeks

 TemperatureHumidityPressure
High66 °F (Nov 21, 2:30 pm)100% (Nov 18, 5:30 am)30.48 "Hg (Nov 18, 5:30 am)
Low30 °F (Dec 2, 5:30 am)51% (Nov 19, 2:30 pm)29.39 "Hg (Nov 21, 5:00 am)
Average49 °F83%29.91 "Hg
* Reported Nov 18 4:00 am — Dec 3 4:30 am, Toulouse, Weather by CustomWeather, © 2016

Note: Actual official high and low records may vary slightly from our data, if they occured in-between our weather recording intervals... More about our weather records

Advertising

Toulouse Weather History for the Previous 24 Hours

Scroll right to see more
 ConditionsComfort  
Time TempWeatherWind HumidityBarometerVisibility
4:30 am
Sat, Dec 3
30 °FIce fog.No wind93%29.98 "Hg2 mi
4:00 am30 °FIce fog.No wind93%29.98 "Hg2 mi
3:00 am32 °FIce fog.No wind93%30.01 "Hg2 mi
2:00 am32 °FIce fog.No wind100%30.01 "Hg2 mi
1:30 am32 °FIce fog.2 mph100%30.01 "Hg2 mi
1:00 am32 °FIce fog.2 mph93%30.01 "Hg2 mi
12:30 am30 °FIce fog.No wind100%30.01 "Hg1 mi
12:00 am32 °FIce fog.No wind93%30.01 "Hg0 mi
11:30 pm
Fri, Dec 2
32 °FFog.No wind93%30.01 "Hg0 mi
11:00 pm34 °FFog.No wind93%30.01 "Hg0 mi
10:30 pm32 °FFog.No wind100%30.01 "Hg0 mi
10:00 pm32 °FFog.No wind93%30.01 "Hg0 mi
9:30 pm34 °FFog.2 mph93%30.01 "Hg1 mi
9:00 pm37 °FFog.1 mph87%30.01 "Hg1 mi
8:30 pm37 °FDense fog.2 mph93%30.04 "Hg2 mi
8:00 pm36 °FPassing clouds.2 mph93%30.04 "Hg2 mi
7:30 pm37 °FFog.No wind87%30.04 "Hg2 mi
7:00 pm39 °FFog.2 mph93%30.04 "Hg3 mi
6:30 pm41 °FFog.3 mph87%30.04 "Hg2 mi
6:00 pm43 °FFog.2 mph87%30.04 "Hg3 mi
5:30 pm45 °FClear.5 mph81%30.04 "Hg4 mi
5:00 pm46 °FPassing clouds.3 mph76%30.04 "HgN/A
4:30 pm50 °FSunny.5 mph62%30.04 "Hg10 mi
4:00 pm50 °FPassing clouds.5 mph67%30.04 "HgN/A
3:00 pm48 °FSunny.3 mph66%30.04 "Hg10 mi
2:30 pm48 °FSunny.2 mph62%30.07 "Hg10 mi
2:00 pm46 °FClear.5 mph71%30.07 "Hg6 mi
1:30 pm45 °FPassing clouds.5 mph71%30.09 "HgN/A
1:00 pm43 °FPassing clouds.3 mph81%30.09 "Hg4 mi
12:30 pm43 °FClear.3 mph81%30.09 "Hg4 mi
12:00 pm43 °FClear.2 mph81%30.12 "Hg5 mi
11:30 am41 °FSunny.1 mph87%30.12 "Hg10 mi
11:00 am39 °FPassing clouds.2 mph93%30.12 "HgN/A
10:30 am36 °FFog.3 mph100%30.15 "Hg2 mi
10:00 am32 °FFog.2 mph100%30.15 "Hg1 mi
9:30 am32 °FIce fog.No wind100%30.15 "Hg0 mi
9:00 am32 °FIce fog.No wind93%30.15 "Hg0 mi
8:30 am30 °FIce fog.No wind100%30.15 "Hg0 mi
8:00 am30 °FIce fog.No wind100%30.15 "Hg1 mi
7:30 am30 °FIce fog.No wind100%30.15 "Hg0 mi
7:00 am32 °FIce fog.No wind93%30.15 "Hg1 mi
6:30 am30 °FIce fog.No wind100%30.15 "Hg1 mi
6:00 am30 °FIce fog.No wind100%30.15 "Hg1 mi
5:30 am30 °FIce fog.No wind100%30.15 "Hg1 mi
5:00 am32 °FIce fog.1 mph93%30.15 "Hg1 mi
Weather by CustomWeather, © 2016

See weather overviewHow to use our weather pages